"Pseudo-MPEC" for ZTF0Iug

Created 2021 Jan 16 6:07:23 UT using Find_Orb

Click here for an explanation of pseudo-MPECs

 
 Astrometry: 
     ZTF0Iug  C2021 01 11.08519021 42 31.01 +02 14 42.2    ~1B6b 19.17rUNEOCPI41
     ZTF0Iug  C2021 01 11.09005021 42 30.82 +02 14 38.9    ~1B6b 19.17rUNEOCPI41
     ZTF0Iug  C2021 01 11.09248021 42 30.74 +02 14 37.4    ~1B6b 19.14rUNEOCPI41

Station data:
(I41) Palomar Mountain--ZTF  (N33.357340 W116.859780)  US/California. 1.2-m
   f/2.44 Oschin Schmidt + CCD.

Orbital elements:  ZTF0Iug
   Perihelion 2021 May 13.039387 +/- 19.7661 TT =  0:56:43 (JD 2459347.539387)
Epoch 2021 Jan 11.0 TT = JDT 2459225.5   Earth MOID: 0.0043   AutoNEOCP
M 222.87462906 +/- 34.920702        (J2000 ecliptic)
n   1.12361569 +/- 0.981298         Peri.  182.96195 +/- 30.431785
a   0.91634184 +/- 0.533508         Node    69.18715 +/- 44.605449
e   0.0706210 +/- 0.216894          Incl.    0.55418 +/- 58.608468
P   0.88/320.39d           H 21.0   G  0.15   U 12.7  SR
q 0.85162884 +/- 0.32303    Q 0.98105483 +/- 22.9418
From 3 observations 2021 Jan. 11 (10.5 min); mean residual 0".04
Residuals in arcseconds: 
210111 I41  .02+  .02+    210111 I41  .06-  .07-    210111 I41  .04+  .04+    

Ephemerides (geocentric):
Date (UTC) HH   RA              Dec         delta   r     elong  mag " sig PA
---- -- -- --  -------------   -----------  ------ ------ -----  --- ---- ---
2021 01 16 06  21 43 57.671   +01 22 45.38  .02749 .96142  35.3 20?? 1497 141
2021 01 16 07  21 43 57.657   +01 22 16.70  .02752 .96138  35.3 20?? 1516 140
2021 01 16 08  21 43 57.633   +01 21 47.99  .02755 .96135  35.2 20?? 1535 140
2021 01 16 09  21 43 57.602   +01 21 19.24  .02758 .96131  35.2 20?? 1554 140
2021 01 16 10  21 43 57.561   +01 20 50.45  .02762 .96127  35.1 20?? 1573 140
2021 01 16 11  21 43 57.513   +01 20 21.63  .02765 .96124  35.1 20?? 1593 140
2021 01 16 12  21 43 57.456   +01 19 52.78  .02768 .96120  35.0 20?? 1612 140
2021 01 16 13  21 43 57.390   +01 19 23.90  .02771 .96116  35.0 20?? 1632 140
2021 01 16 14  21 43 57.316   +01 18 54.98  .02775 .96113  34.9 20?? 1652 139
2021 01 16 15  21 43 57.234   +01 18 26.02  .02778 .96109  34.9 20?? 1673 139
2021 01 16 16  21 43 57.143   +01 17 57.04  .02781 .96106  34.9 20?? 1693 139
2021 01 16 17  21 43 57.044   +01 17 28.01  .02784 .96102  34.8 20?? 1714 139
2021 01 16 18  21 43 56.936   +01 16 58.96  .02788 .96098  34.8 20?? 1735 139
2021 01 16 19  21 43 56.820   +01 16 29.87  .02791 .96095  34.7 20?? 1756 139
2021 01 16 20  21 43 56.696   +01 16 00.74  .02794 .96091  34.7 20?? 1778 139
2021 01 16 21  21 43 56.564   +01 15 31.58  .02797 .96088  34.6 20?? 1799 139
2021 01 16 22  21 43 56.423   +01 15 02.39  .02801 .96084  34.6 20?? 1821 138
2021 01 16 23  21 43 56.274   +01 14 33.16  .02804 .96080  34.6 20?? 1843 138
2021 01 17 00  21 43 56.116   +01 14 03.89  .02807 .96077  34.5 20?? 1866 138
2021 01 17 01  21 43 55.951   +01 13 34.59  .02810 .96073  34.5 20?? 1888 138
2021 01 17 02  21 43 55.777   +01 13 05.26  .02814 .96069  34.4 20?? 1911 138
2021 01 17 03  21 43 55.595   +01 12 35.89  .02817 .96066  34.4 20?? 1934 138
2021 01 17 04  21 43 55.404   +01 12 06.49  .02820 .96062  34.3 20?? 1958 138
2021 01 17 05  21 43 55.206   +01 11 37.05  .02823 .96058  34.3 20?? 1981 138
2021 01 17 06  21 43 54.999   +01 11 07.58  .02827 .96055  34.2 20?? 2005 137
2021 01 17 07  21 43 54.784   +01 10 38.07  .02830 .96051  34.2 20?? 2029 137
2021 01 17 08  21 43 54.561   +01 10 08.52  .02833 .96047  34.2 20?? 2053 137
2021 01 17 09  21 43 54.330   +01 09 38.95  .02836 .96044  34.1 20?? 2078 137
2021 01 17 10  21 43 54.091   +01 09 09.33  .02840 .96040  34.1 20?? 2103 137
2021 01 17 11  21 43 53.843   +01 08 39.68  .02843 .96036  34.0 20?? 2128 137
2021 01 17 12  21 43 53.588   +01 08 10.00  .02846 .96033  34.0 20?? 2153 137
2021 01 17 13  21 43 53.325   +01 07 40.28  .02849 .96029  33.9 20?? 2179 137
2021 01 17 14  21 43 53.053   +01 07 10.52  .02853 .96025  33.9 20?? 2205 137
2021 01 17 15  21 43 52.774   +01 06 40.73  .02856 .96022  33.8 20?? 2231 136
2021 01 17 16  21 43 52.486   +01 06 10.91  .02859 .96018  33.8 20?? 2258 136
2021 01 17 17  21 43 52.190   +01 05 41.05  .02863 .96014  33.8 20?? 2285 136
2021 01 17 18  21 43 51.887   +01 05 11.15  .02866 .96011  33.7 20?? 2312 136
2021 01 17 19  21 43 51.575   +01 04 41.22  .02869 .96007  33.7 20?? 2340 136
2021 01 17 20  21 43 51.256   +01 04 11.25  .02872 .96003  33.6 20?? 2367 136
2021 01 17 21  21 43 50.929   +01 03 41.25  .02876 .96000  33.6 20?? 2395 136
2021 01 17 22  21 43 50.593   +01 03 11.21  .02879 .95996  33.5 20?? 2424 136
2021 01 17 23  21 43 50.250   +01 02 41.13  .02882 .95992  33.5 20?? 2453 136
2021 01 18 00  21 43 49.899   +01 02 11.02  .02886 .95988  33.4 20?? 2482 135
2021 01 18 01  21 43 49.540   +01 01 40.87  .02889 .95985  33.4 20?? 2511 135
2021 01 18 02  21 43 49.174   +01 01 10.69  .02892 .95981  33.3 20?? 2541 135
2021 01 18 03  21 43 48.799   +01 00 40.47  .02895 .95977  33.3 20?? 2572 135
2021 01 18 04  21 43 48.417   +01 00 10.22  .02899 .95974  33.3 20?? 2602 135
2021 01 18 05  21 43 48.027   +00 59 39.93  .02902 .95970  33.2 20?? 2633 135